Weather History for Klawock, AK

Change the Weather History Date:

Wednesday, May 7, 2014

  Actual Average Record
Temperature  
Mean Temperature 48 °F -  
Max Temperature 63 °F 52 °F 71 °F (2005)
Min Temperature 36 °F 35 °F 30 °F (2002)
Degree Days  
Heating Degree Days 17    
Moisture  
Dew Point 34 °F    
Average Humidity 61    
Maximum Humidity 93    
Minimum Humidity 31    
Precipitation  
Precipitation 0.00 in - - ()
Sea Level Pressure  
Sea Level Pressure 29.86 in    
Wind  
Wind Speed 2 mph (WSW)    
Max Wind Speed 12 mph    
Max Gust Speed -    
Visibility 10 miles    
Events      
Averages and records for this station are not official NWS values.
T = Trace of Precipitation, MM = Missing Value Source: NWS Daily Summary

Daily Weather History Graph

Daily Weather History Graph

Search for Another Location

Airport:

Trip Planner

Search our weather history database for the weather conditions in past years. The results will help you decide how hot, cold, wet, or windy it might be!

Date:

Astronomy

May. 07, 2014 Rise Set
Actual Time 4:56 AM AKDT 8:42 PM AKDT
Civil Twilight 4:10 AM AKDT 9:28 PM AKDT
Nautical Twilight 3:05 AM AKDT 10:34 PM AKDT
Astronomical Twilight 1:21 AM AKDT 12:16 AM AKDT
Moon 12:42 PM AKDT (5/7) 2:14 AM AKDT (5/7)
Length of Visible Light 17h 17m
Length of Day
15h 45m
First Quarter, 57% of the Moon is Illuminated
May 7
First Quarter
May 14
Full
May 21
Last Quarter
May 28
New
Jun 5
First Quarter

Hourly Weather History & Observations

Time (AKDT) Temp. Windchill Dew Point Humidity Pressure Visibility Wind Dir Wind Speed Gust Speed Precip Events Conditions
12:53 AM 37.9 °F - 34.0 °F 86% 30.00 in 10.0 mi Calm Calm - N/A   Clear
1:53 AM 37.0 °F - 35.1 °F 93% 29.99 in 10.0 mi Calm Calm - N/A   Clear
2:53 AM 36.0 °F - 33.1 °F 89% 29.97 in 10.0 mi Calm Calm - N/A   Clear
3:53 AM 37.0 °F - 35.1 °F 93% 29.95 in 10.0 mi Calm Calm - N/A   Mostly Cloudy
4:53 AM 36.0 °F - 33.1 °F 89% 29.93 in 10.0 mi Calm Calm - N/A   Clear
5:53 AM 36.0 °F - 33.1 °F 89% 29.92 in 10.0 mi Calm Calm - N/A   Mostly Cloudy
6:53 AM 41.0 °F 39.0 °F 36.0 °F 82% 29.91 in 10.0 mi NNE 3.5 mph - N/A   Clear
7:53 AM 45.0 °F - 35.1 °F 68% 29.90 in 10.0 mi Calm Calm - N/A   Mostly Cloudy
8:53 AM 51.1 °F - 32.0 °F 48% 29.89 in 10.0 mi Calm Calm - N/A   Clear
9:53 AM 54.0 °F - 24.1 °F 31% 29.86 in 10.0 mi Variable 3.5 mph - N/A   Clear
10:53 AM 55.9 °F - 28.9 °F 36% 29.85 in 10.0 mi WNW 5.8 mph - N/A   Clear
11:53 AM 60.1 °F - 30.0 °F 32% 29.84 in 10.0 mi WSW 8.1 mph - N/A   Clear
12:53 PM 60.1 °F - 32.0 °F 35% 29.82 in 10.0 mi SW 6.9 mph - N/A   Clear
1:53 PM 57.9 °F - 32.0 °F 37% 29.82 in 10.0 mi SW 10.4 mph - N/A   Overcast
2:53 PM 57.0 °F - 33.1 °F 40% 29.81 in 10.0 mi SW 11.5 mph - N/A   Overcast
3:53 PM 55.9 °F - 33.1 °F 42% 29.81 in 10.0 mi Variable 3.5 mph - N/A   Overcast
4:53 PM 55.9 °F - 35.1 °F 45% 29.81 in 10.0 mi SW 5.8 mph - N/A   Overcast
5:53 PM 55.0 °F - 35.1 °F 47% 29.81 in 10.0 mi SW 8.1 mph - N/A   Overcast
6:53 PM 52.0 °F - 36.0 °F 54% 29.80 in 10.0 mi SW 4.6 mph - N/A   Overcast
7:53 PM 50.0 °F - 35.1 °F 57% 29.79 in 10.0 mi Variable 3.5 mph - N/A   Overcast
8:53 PM 48.0 °F - 36.0 °F 63% 29.78 in 10.0 mi Calm Calm - N/A   Overcast
9:53 PM 48.0 °F - 37.0 °F 66% 29.78 in 10.0 mi Calm Calm - N/A   Overcast
11:53 PM 46.9 °F - 39.0 °F 74% 29.76 in 10.0 mi Calm Calm - 0.00 in   Overcast